CZ-6A DEB, 54994

Orbit data source: Space-Track

CZ-6A DEB, 54994 is space debris in SSO originally from a launch on Fri, 11 Nov 2022 UTC launched from the Taiyaun Space Center, China (TSC). Debris objects in space refer to the collection of defunct objects orbiting the Earth. Examples of debris include non-operational satellites, rocket bodies, and fragments generated from explosions, collisions, or faulty payload assembly.

Loading next visibility...
Identifier
54994, 2022-151UK
Orbit
SSO
Country
Flag of CNCN / PRC
Related business
Manufacturer
SAST
Mission
Spacecraft
Bus & Motor
Unknown
Mass
Unknown
Launch date (UTC)
2022-11-11 (3 years ago)
Launch vehicle
Unknown
Launch site
Taiyaun Space Center, China (TSC)
Object type
Payload
Rocket body
Debris
Shape & HBR
Unknown shape, 0.1 m
Radar Cross Section
Small (<0.1 m²)

Expand to show TLE details & history
Last TLE update: 17 hours ago

TLE from 17 hours ago
0 CZ-6A DEB
1 54994U 22151UK  25353.06092007  .00004823  00000-0  16209-2 0  9991
2 54994  98.8425  32.9313 0008243 249.6695 110.3606 14.37619790160458
Epoch: 2025-12-19T01:27Z
TLE epoch observation values (Epoch: 2025-12-19T01:27:43.494Z)
Latitude
0.00007°
Longitude
-76.90742°
Altitude
771.361 km
Speed
7.467 km/s
True Right ascension
02h 11m 43s
True Declination
0° 00' 00"
Sunlit
Object was in full shadow at epoch
Visualization orbit readout
Latitude
Unknown
Longitude
Unknown
Altitude
Unknown
Speed
Unknown
Apparent Right ascension
Unknown
Apparent Declination
Unknown
Sunlit
N/A
Visualization observer readout
Local Sidereal Time
17:04:19
Azimuth
Unknown
Elevation
Unknown
Doppler factor
Unknown
Orbital elements
Apogee altitude
769.402 km
Perigee altitude
757.628 km
Semi-major axis
7,141.652 km
Eccentricity
0.00082
Inclination
98.8425°
RAAN
32.9313°
Arg. of periapsis
249.6695°
True anomaly
110.44912°
Mean anomaly
110.3606°
Eccentric anomaly
110.40487°
Mean motion
3.59621 °/min
Orbital period
100.11 mins
BSTAR
0.0016209
Loading maneuver chart data...
Computing Atmospheric mass density...

Documentation

Showing up to 5 results
|